Location: Pettit
(39.0209°N, 79.7181°W)
Time: 19:51:09
(UTC+00:00)

ACS3 Solar Sail - Pass Details

Date: 26 April 2026
Orbit: 894 x 947 km, 97.2° (Epoch: 12 May)

Event Time Altitude Azimuth Distance (km) Brightness Sun altitude
Rises 05:20:21 0° 24° (NNE) 3,565 5.6 -37.4°
Reaches altitude 10° 05:23:12 10° 37° (NE) 2,627 4.6 -37.4°
Enters shadow 05:25:54 21° 61° (ENE) 1,949 3.6 -37.4°
